Flag for Honduras Weather past 2 weeks in Tegucigalpa, Honduras

Now
79 °F

Broken clouds.


Feels Like: 81 °F
Forecast: 65 / 84 °F
Wind: No wind

Location: Tegucigalpa Airport

Current Time: Sep 4, 2015 at 11:08:44 AM

Latest Report: Sep 4, 2015 at 10:00 AM


Visibility: N/A

Pressure: 30.12 "Hg (26.70 "Hg at 1054m altitude)

Humidity: 65%

Dew point: 66 °F

Location of TegucigalpaLocation

Historic Weather in Tegucigalpa — Graph

°F

Tegucigalpa temperature yesterday

Maximum temperature yesterday: 86 °F (at 2:00 PM)
Minimum temperature yesterday: 64 °F (at 5:00 AM)
Average temperature yesterday: 73 °F

Past Weeks' High & Low Weather Summary

 TemperatureHumidityPressure
High93 °F (Aug 30, 3:00 PM)100% (Aug 21, 3:00 AM)30.15 "Hg (Aug 21, 3:00 AM)
Low36 °F (Aug 25, 11:00 PM)28% (Aug 25, 2:00 PM)29.95 "Hg (Aug 28, 4:00 PM)
Average77 °F66%30.07 "Hg
* Reported Aug 20 9:00 AM — Sep 4 9:00 AM, Tegucigalpa, Weather by CustomWeather, © 2015

Note: Actual official high and low records may vary slightly from our data, if they occured in-between our weather recording intervals... More about our weather records

Advertising

Tegucigalpa weather history for previous 24 hours

 ConditionsComfort  
Time TempWeatherWind HumidityBarometerVisibility
9:00 AM
Fri, Sep 4
75 °FScattered clouds.2 mph83%30.09 "HgN/A
8:00 AM72 °FBroken clouds.2 mph88%30.09 "HgN/A
7:00 AM68 °FBroken clouds.No wind100%30.07 "HgN/A
6:00 AM66 °FBroken clouds.No wind100%30.07 "HgN/A
5:00 AM68 °FPassing clouds.No wind94%30.07 "HgN/A
4:00 AM68 °FPassing clouds.No wind94%N/AN/A
3:00 AM68 °FPassing clouds.No wind94%N/AN/A
2:00 AM68 °FPassing clouds.No wind94%30.07 "HgN/A
1:00 AM68 °FPassing clouds.No wind94%30.07 "HgN/A
12:00 AM70 °FPassing clouds.No wind94%30.07 "HgN/A
11:00 PM
Thu, Sep 3
68 °FPassing clouds.No wind94%30.09 "HgN/A
10:00 PM70 °FPassing clouds.2 mph88%30.07 "HgN/A
9:00 PM70 °FScattered showers. Passing clouds.2 mph94%30.09 "Hg5 mi
8:00 PM68 °FPassing clouds.No wind94%N/AN/A
7:00 PM68 °FLight rain. Passing clouds.No wind94%30.04 "HgN/A
6:00 PM75 °FRain. Partly cloudy.5 mph69%30.04 "Hg4 mi
5:00 PM77 °FBroken clouds.3 mph61%30.01 "HgN/A
4:00 PM81 °FBroken clouds.5 mph54%30.01 "HgN/A
3:00 PM81 °FPartly sunny.7 mph48%30.01 "HgN/A
2:00 PM86 °FBroken clouds.7 mph43%N/AN/A
1:00 PM82 °FBroken clouds.7 mph51%30.07 "HgN/A
12:00 PM82 °FBroken clouds.7 mph55%30.07 "HgN/A
11:00 AM82 °FBroken clouds.7 mph55%30.12 "HgN/A
Weather by CustomWeather, © 2015

See weather overviewHow to use our weather pages